Flag for Switzerland Weather past 2 weeks in Biel, Switzerland

Now
31 °F

Chilly.


Feels Like: 26 °F
Forecast: 25 / 51 °F
Wind: 5 mph from Northeast

Location: Grenchen

Current Time: Mar 6, 2015 at 1:30:51 AM

Latest Report: Mar 6, 2015 at 12:00 AM


Visibility: N/A

Pressure: 30.68 "Hg

Humidity: 80%

Dew point: 26 °F

Location of BielLocation

Historic Weather in Biel — Graph

°F

Biel temperature yesterday

Maximum temperature yesterday: 44 °F (at 4:00 PM)
Minimum temperature yesterday: 34 °F (at 6:00 AM)
Average temperature yesterday: 38 °F

Past Weeks' High & Low Weather Summary

 TemperatureHumidityPressure
High51 °F (Mar 3, 4:00 PM)100% (Feb 20, 1:00 AM)30.70 "Hg (Feb 20, 1:00 AM)
Low25 °F (Feb 20, 6:00 AM)43% (Feb 26, 4:00 PM)29.63 "Hg (Feb 21, 9:00 AM)
Average37 °F84%30.11 "Hg
* Reported Midnight between Feb 18 and Feb 19 — Midnight between Mar 5 and Mar 6, Biel, Weather by CustomWeather, © 2015

Note: Actual official high and low records may vary slightly from our data, if they occured in-between our weather recording intervals... More about our weather records

Advertising

Biel weather history for previous 24 hours

 ConditionsComfort  
Time TempWeatherWind HumidityBarometerVisibility
12:00 AM
Fri, Mar 6
31 °FChilly.5 mph80%30.68 "HgN/A
11:00 PM
Thu, Mar 5
34 °FChilly.3 mph73%30.67 "HgN/A
10:00 PM36 °FChilly.5 mph67%30.66 "HgN/A
9:00 PM38 °FChilly.10 mph63%30.64 "HgN/A
8:00 PM38 °FChilly.12 mph61%30.64 "HgN/A
7:00 PM39 °FChilly.12 mph58%30.62 "HgN/A
6:00 PM41 °FQuite cool.8 mph56%30.60 "HgN/A
5:00 PM43 °FQuite cool.13 mph49%30.58 "HgN/A
4:00 PM44 °FQuite cool.10 mph50%30.58 "HgN/A
3:00 PM43 °FQuite cool.12 mph49%30.58 "HgN/A
2:00 PM43 °FQuite cool.12 mph49%30.60 "HgN/A
1:00 PM41 °FQuite cool.12 mph55%30.61 "HgN/A
12:00 PM41 °FQuite cool.9 mph59%30.62 "HgN/A
11:00 AM40 °FChilly.12 mph61%30.62 "HgN/A
10:00 AM38 °FChilly.16 mph60%30.62 "HgN/A
9:00 AM37 °FChilly.12 mph65%30.61 "HgN/A
8:00 AM37 °FChilly.14 mph63%30.60 "HgN/A
7:00 AM37 °FChilly.14 mph67%30.59 "HgN/A
6:00 AM34 °FChilly.2 mph83%30.59 "HgN/A
5:00 AM35 °FChilly.3 mph80%30.58 "HgN/A
3:00 AM35 °FChilly.1 mph94%30.57 "HgN/A
2:00 AM35 °FChilly.2 mph92%30.57 "HgN/A
1:00 AM36 °FChilly.7 mph79%30.55 "HgN/A
Weather by CustomWeather, © 2015

See weather overviewHow to use our weather pages